Location: Allos
(44.2333°N, 6.6333°E)
Time: 23:40:10
(UTC+00:00)

SAR-Lupe-4 - Pass Details

Date: 20 April 2021
Orbit: 483 x 483 km, 98.2° (Epoch: 13 April)

Event Time Altitude Azimuth Distance (km) Brightness Sun altitude
Rises 20:03:32 0° 353° (N) 2,560 7.9 -16.7°
Reaches altitude 10° 20:06:30 10° 326° (NW) 1,673 7.4 -17.1°
Maximum altitude 20:08:14 13° 297° (WNW) 1,482 7.2 -17.4°
Drops below altitude 10° 20:09:58 10° 268° (W) 1,667 7.0 -17.6°
Sets 20:12:54 0° 240° (WSW) 2,541 7.5 -18.0°
